Regional Weather Roundup
Issued by NWS

Home | Current Version | Previous Version | Text Only | Print | Product List | Glossary On
Versions: 1 2 3 4 5 6 7 8 9 10 11 12 13 14 15 16 17 18 19 20 21 22 23 24 25 26 27 28 29 30 31 32 33 34 35 36 37 38 39 40 41 42 43 44 45 46 47 48 49 50
000
ASUS44 KFWD 290915
RWRTX
NORTH TEXAS HOURLY WEATHER ROUNDUP
NATIONAL WEATHER SERVICE FORT WORTH TX
400 AM CDT SAT APR 29 2017

NOTE: "FAIR" INDICATES FEW OR NO CLOUDS BELOW 12,000 FEET WITH NO
SIGNIFICANT WEATHER AND/OR OBSTRUCTIONS TO VISIBILITY.

TXZ118-119-291000-
DALLAS/FORT WORTH METROPLEX

CITY           SKY/WX    TMP DP  RH WIND       PRES   REMARKS
DFW AIRPORT    CLOUDY    78  71  79 S18       29.57F
DALLAS LOVE    CLOUDY    78  70  76 S18G28    29.58F
FTW MEACHAM    CLOUDY    78  71  79 SE22G37   29.56F
DAL-EXECUTIVE  CLOUDY    76  71  85 SE16G35   29.58F HAZE
FTW-ALLIANCE   CLOUDY    77  70  79 S15G28    29.55F
FTW-NAS-JRB    CLOUDY    78  70  76 S23G30    29.57
FTW-SPINKS     CLOUDY    76  70  80 SE21G28   29.59F HAZE
ARLINGTON      CLOUDY    76  70  82 SE21G30   29.58F
GRAND PRAIRIE  CLOUDY    76  68  77 SE16G23   29.60R
ADDISON        CLOUDY    76  69  79 S15G21    29.61F
MESQUITE       PTCLDY    74  71  89 S9G16     29.63S
LANCASTER      CLOUDY    75  70  85 SE7       29.63F
$$

TXZ091>094-102>105-117-120-121-131>134-291000-
NORTH CENTRAL TEXAS

CITY           SKY/WX    TMP DP  RH WIND       PRES   REMARKS
SHRMAN/DENISON PTCLDY    75  69  81 S26G41    29.55F
GAINESVILLE    CLOUDY    74  69  83 S20G29    29.55F HAZE
BOWIE          CLOUDY    76  70  80 S18G28    29.52F
BRIDGEPORT     CLOUDY    76  68  77 S15G26    29.55F
DECATUR        PTCLDY    76  69  79 SE17G26   29.55F HAZE
DENTON         CLOUDY    76  70  82 S18       29.54F
MCKINNEY       CLOUDY    75  72  90 SE16      29.58F
BONHAM         MOCLDY    73  70  88 S20G28    29.57F
GREENVILLE     PTCLDY    77  72  83 SE9       29.64F
ROCKWALL       CLOUDY    75  72  91 S15G24    29.63S
TERRELL        CLOUDY    75  71  87 S9        29.64S
WAXAHACHIE     CLOUDY    74  70  87 SE9       29.62F FOG
CLEBURNE       CLOUDY    75  73  94 S17G24    29.60F FOG
GRANBURY       CLOUDY    77  69  77 SE15G24   29.56F
$$

TXZ083>090-098>101-113>116-127>130-139>142-154-155-291000-
WESTERN NORTH TEXAS

CITY           SKY/WX    TMP DP  RH WIND       PRES   REMARKS
WICHITA FALLS  CLEAR     73  67  81 S21G37    29.46S
VERNON         CLOUDY    67  56  67 N14       29.55R
ABILENE        PTCLDY    73  68  84 S21G28    29.51F
ABILENE-DYESS  MOCLDY    74  68  81 SE21G28   29.48F
GRAHAM         CLOUDY    75  69  81 SE13G24   29.50F
BRECKENRIDGE   CLOUDY    76  67  74 S17G29    29.52S HAZE
CISCO          MOCLDY    73  68  83 SE16G24   29.54F
RANGER         PTCLDY    73  68  83 S16G26    29.55F
MINERAL WELLS  PTCLDY    76  69  79 S16G25    29.54S
STEPHENVILLE   CLOUDY    74  68  79 S17G24    29.59F
COMANCHE       PTCLDY    73  69  87 S15G25    29.56S
BROWNWOOD      MOCLDY    73  68  83 S14G25    29.55R HAZE
COLEMAN        CLOUDY    74  67  79 SE17      29.55S
$$

TXZ143>147-156>162-174-175-291000-
CENTRAL TEXAS

CITY           SKY/WX    TMP DP  RH WIND       PRES   REMARKS
WACO           CLOUDY    76  72  87 SE13      29.60F
WACO-MCGREGOR  CLOUDY    76  71  85 SE16G24   29.61S
HILLSBORO      CLOUDY    76  72  86 SE12G18   29.62F
CORSICANA      CLOUDY    78  72  81 SE9       29.64F
MEXIA          CLOUDY    75  71  86 SE13G21   29.62F
HEARNE         CLOUDY    77  75  92 SE12G18   29.62F
CAMERON        CLOUDY    77  73  85 SE9G18    29.60F
TEMPLE         CLOUDY    76  72  87 SE14G23   29.61S
KILLEEN        CLOUDY    75  70  85 SE20G28   29.59R
KILLEEN-SKYLRK CLOUDY    76  71  85 SE17      29.60S
FORT HOOD      CLOUDY    74  70  88 S14G22    29.57S
GATESVILLE     CLOUDY    75  70  83 SE10G23   29.62S HAZE
HAMILTON       CLOUDY    74  69  83 S18G24    29.59F
LAMPASAS       CLOUDY    76  72  87 S14G21    29.59F
$$

TXZ095>097-106>112-122>126-135>138-148>153-164>167-291000-
EAST TEXAS

CITY           SKY/WX    TMP DP  RH WIND       PRES   REMARKS
PARIS          PTCLDY    73  70  88 S17       29.62F
SULPHUR SPRNGS CLOUDY    77  72  83 S6        29.67S
MOUNT PLEASANT MOCLDY    78  72  80 S13G22    29.67S
GILMER         CLOUDY    78  73  84 S14G20    29.66S
MINEOLA        CLOUDY    79  72  78 SE10      29.65S
TYLER          CLOUDY    79  73  82 S20G28    29.65S
LONGVIEW       LGT RAIN  77  76  96 S14G25    29.67S
MARSHALL       CLOUDY    73  71  92 S9G21     29.71S
ATHENS         CLOUDY    77  70  78 S13G21    29.64R
PALESTINE      CLOUDY    79  73  83 SE13G18   29.65F
JACKSONVILLE   CLOUDY    78  73  84 SE13G21   29.69S
HENDERSON      CLOUDY    76  74  93 S12       29.69S
CENTER         CLOUDY    79  78  95 SE13G18   29.72F
NACOGDOCHES    CLOUDY    77  72  83 S14G20    29.68S
LUFKIN         LGT RAIN  76  73  91 SE10      29.69S FOG
$$

SUPPLEMENTAL OBSERVATIONS (CENTRAL)

CITY           SKY/WX    TMP DP  RH WIND       PRES   REMARKS
DENISON DAM      N/A     77  70  78 S16         N/A
CADDO GRASSLND   N/A     75  70  83 S14         N/A
PAT MAYSE LAKE   N/A     75  73  94 SE24        N/A
GREENVILLE       N/A     75  70  83 S8          N/A
CEDAR HILL       N/A     75  70  83 SE13G32     N/A
ATHENS           N/A     79  70  73 S14         N/A
LAKE LIMESTONE   N/A     77  72  83 S5G13       N/A
TEMPLE           N/A     75  70  83 SE13        N/A
$$

SUPPLEMENTAL OBSERVATIONS (WEST)

CITY           SKY/WX    TMP DP  RH WIND       PRES   REMARKS
MILLERS CREEK    N/A     73  66  78 S18G24      N/A
POSSUM KINGDOM   N/A     75  68  78 SE18G30     N/A
LBJ GRASSLAND    N/A     75  68  78 SE16G26     N/A
GRANBURY         N/A     75  68  78 SE17G28     N/A
COMANCHE         N/A     73  68  83 SE17G26     N/A
HAMBY            N/A     73  66  78 S16G26      N/A
IVIE RESERVOIR   N/A     73  66  78 SE14        N/A
COLORADO BEND    N/A     73  66  78 SW17G26     N/A
$$

SUPPLEMENTAL OBSERVATIONS (EAST)

CITY           SKY/WX    TMP DP  RH WIND       PRES   REMARKS
CLARKSVILLE      N/A     75  70  83 S12         N/A
TEXARKANA        N/A     77  72  83 S6          N/A
LINDEN           N/A     75  72  88 S7G16       N/A
CADDO LAKE       N/A     79  72  78 S8G17       N/A
GILMER           N/A     79  73  83 S10G22      N/A
HENDERSON        N/A     77  72  83 S7G20       N/A
LUFKIN           N/A     77  72  83 MISG        N/A
N SABINE NF      N/A     75  72  88 MISG        N/A
S SABINE NF      N/A     75  70  83 SE5G15      N/A
$$

SUPPLEMENTAL OBSERVATIONS ARE A COLLECTION OF AUTOMATED INSTRUMENTS
THAT ARE MAINTAINED BY A VARIETY OF FEDERAL AND STATE AGENCIES.
CERTAIN ELEMENTS...SUCH AS HUMIDITY VALUES AND SUSTAINED WIND
SPEEDS...MAY BE APPROXIMATED.




USA.gov is the U.S. government's official web portal to all federal, state and local government web resources and services.